Location: Ffald-y-Brenin
(52.0833°N, 4.0000°W)
Time: 08:30:15
(UTC+00:00)

Nadezhda 3 Rocket - Pass Details

Date: 18 February 2020
Orbit: 957 x 999 km, 82.9° (Epoch: 27 March)

Event Time Altitude Azimuth Distance (km) Brightness Sun altitude
Exits shadow 04:52:20 48° 288° (WNW) 1,273 4.2 -24.2°
Maximum altitude 04:52:20 48° 288° (WNW) 1,273 4.2 -24.2°
Drops below altitude 10° 04:58:28 10° 2° (N) 2,771 6.5 -23.3°
Sets 05:01:08 0° 9° (N) 3,729 7.3 -22.9°
